Time,TemperatureF,DewpointF,PressureIn,WindDirection,WindDirectionDegrees,WindSpeedMPH,WindSpeedGustMPH,Humidity,HourlyPrecipIn,Conditions,Clouds,dailyrainin,SoftwareType,DateUTC
2013-06-03 00:03:00,39.7,36.0,30.06,NNW,328,3.0,-999.0,87,-99.99,,,0.00,weatherlink.com 1.10,2013-06-03 04:03:00,
2013-06-03 00:18:00,39.4,36.0,30.07,NNW,342,0.0,-999.0,87,-99.99,,,0.00,weatherlink.com 1.10,2013-06-03 04:18:00,
2013-06-03 00:33:00,39.3,36.0,30.07,NW,313,1.0,-999.0,88,-99.99,,,0.00,weatherlink.com 1.10,2013-06-03 04:33:00,
2013-06-03 00:48:00,38.9,36.0,30.07,NW,313,0.0,-999.0,88,-99.99,,,0.00,weatherlink.com 1.10,2013-06-03 04:48:00,
2013-06-03 01:03:00,38.9,36.0,30.06,NW,313,1.0,-999.0,89,-99.99,,,0.00,weatherlink.com 1.10,2013-06-03 05:03:00,
2013-06-03 01:18:00,39.3,36.0,30.07,WNW,302,5.0,-999.0,89,-99.99,,,0.00,weatherlink.com 1.10,2013-06-03 05:18:00,
2013-06-03 01:33:00,39.7,37.0,30.07,NW,315,2.0,-999.0,89,-99.99,,,0.00,weatherlink.com 1.10,2013-06-03 05:33:00,
2013-06-03 01:48:00,39.8,37.0,30.06,NW,315,1.0,-999.0,88,-99.99,,,0.00,weatherlink.com 1.10,2013-06-03 05:48:00,
2013-06-03 02:03:00,39.3,36.0,30.06,NW,321,3.0,-999.0,89,-99.99,,,0.00,weatherlink.com 1.10,2013-06-03 06:03:00,
2013-06-03 02:18:00,39.6,37.0,30.06,WNW,294,3.0,-999.0,89,-99.99,,,0.00,weatherlink.com 1.10,2013-06-03 06:18:00,
2013-06-03 02:33:00,39.7,37.0,30.06,WNW,292,4.0,-999.0,89,-99.99,,,0.00,weatherlink.com 1.10,2013-06-03 06:33:00,
2013-06-03 02:48:00,39.5,36.0,30.07,WNW,298,2.0,-999.0,88,-99.99,,,0.00,weatherlink.com 1.10,2013-06-03 06:48:00,
2013-06-03 03:03:00,39.2,36.0,30.07,NW,310,0.0,-999.0,89,-99.99,,,0.00,weatherlink.com 1.10,2013-06-03 07:03:00,
2013-06-03 03:18:00,38.3,35.0,30.06,NW,311,0.0,-999.0,89,-99.99,,,0.00,weatherlink.com 1.10,2013-06-03 07:18:00,
2013-06-03 03:33:00,37.4,35.0,30.07,NW,313,2.0,-999.0,89,-99.99,,,0.00,weatherlink.com 1.10,2013-06-03 07:33:00,
2013-06-03 03:48:00,37.3,35.0,30.06,NW,311,0.0,-999.0,91,-99.99,,,0.00,weatherlink.com 1.10,2013-06-03 07:48:00,
2013-06-03 04:03:00,37.5,35.0,30.06,NW,310,0.0,-999.0,91,-99.99,,,0.00,weatherlink.com 1.10,2013-06-03 08:03:00,
2013-06-03 04:18:00,37.1,35.0,30.07,NW,309,3.0,-999.0,92,-99.99,,,0.00,weatherlink.com 1.10,2013-06-03 08:18:00,
2013-06-03 04:33:00,38.0,36.0,30.06,NW,315,1.0,-999.0,92,-99.99,,,0.00,weatherlink.com 1.10,2013-06-03 08:33:00,
2013-06-03 04:48:00,37.7,36.0,30.07,NW,325,4.0,-999.0,92,-99.99,,,0.00,weatherlink.com 1.10,2013-06-03 08:48:00,
2013-06-03 05:03:00,38.0,36.0,30.06,WNW,303,1.0,-999.0,92,-99.99,,,0.00,weatherlink.com 1.10,2013-06-03 09:03:00,
2013-06-03 05:18:00,37.5,35.0,30.06,NW,312,2.0,-999.0,92,-99.99,,,0.00,weatherlink.com 1.10,2013-06-03 09:18:00,
2013-06-03 05:33:00,37.8,36.0,30.06,NW,310,3.0,-999.0,93,-99.99,,,0.00,weatherlink.com 1.10,2013-06-03 09:33:00,
2013-06-03 05:48:00,37.7,36.0,30.06,WNW,296,2.0,-999.0,93,-99.99,,,0.00,weatherlink.com 1.10,2013-06-03 09:48:00,
2013-06-03 06:03:00,37.9,36.0,30.07,NW,314,2.0,-999.0,93,-99.99,,,0.00,weatherlink.com 1.10,2013-06-03 10:03:00,
2013-06-03 06:18:00,39.0,37.0,30.07,WNW,295,0.0,-999.0,93,-99.99,,,0.00,weatherlink.com 1.10,2013-06-03 10:18:00,
2013-06-03 06:34:00,40.2,38.0,30.06,WNW,303,3.0,-999.0,92,-99.99,,,0.00,weatherlink.com 1.10,2013-06-03 10:34:00,
2013-06-03 06:49:00,41.1,38.0,30.06,NW,306,4.0,-999.0,90,-99.99,,,0.00,weatherlink.com 1.10,2013-06-03 10:49:00,
2013-06-03 07:04:00,41.7,38.0,30.06,WNW,300,5.0,-999.0,88,-99.99,,,0.00,weatherlink.com 1.10,2013-06-03 11:04:00,
2013-06-03 07:19:00,42.4,39.0,30.07,NW,311,2.0,-999.0,87,-99.99,,,0.00,weatherlink.com 1.10,2013-06-03 11:19:00,
2013-06-03 07:34:00,42.9,39.0,30.07,West,281,11.0,-999.0,85,-99.99,,,0.00,weatherlink.com 1.10,2013-06-03 11:34:00,
2013-06-03 07:49:00,43.1,39.0,30.08,WNW,290,7.0,-999.0,84,-99.99,,,0.00,weatherlink.com 1.10,2013-06-03 11:49:00,
2013-06-03 08:04:00,43.7,39.0,30.08,West,273,6.0,-999.0,84,-99.99,,,0.00,weatherlink.com 1.10,2013-06-03 12:04:00,
2013-06-03 08:19:00,43.6,38.0,30.08,NW,304,12.0,-999.0,82,-99.99,,,0.00,weatherlink.com 1.10,2013-06-03 12:19:00,
2013-06-03 08:34:00,44.3,39.0,30.08,NW,314,13.0,-999.0,80,-99.99,,,0.00,weatherlink.com 1.10,2013-06-03 12:34:00,
2013-06-03 08:49:00,45.4,40.0,30.08,NW,307,15.0,-999.0,80,-99.99,,,0.00,weatherlink.com 1.10,2013-06-03 12:49:00,
2013-06-03 09:04:00,45.4,38.0,30.08,NW,314,5.0,-999.0,76,-99.99,,,0.00,weatherlink.com 1.10,2013-06-03 13:04:00,
2013-06-03 09:19:00,46.7,38.0,30.09,WNW,284,13.0,-999.0,73,-99.99,,,0.00,weatherlink.com 1.10,2013-06-03 13:19:00,
2013-06-03 09:34:00,47.1,39.0,30.09,West,280,11.0,-999.0,73,-99.99,,,0.00,weatherlink.com 1.10,2013-06-03 13:34:00,
2013-06-03 09:49:00,47.2,38.0,30.09,WNW,302,14.0,-999.0,71,-99.99,,,0.00,weatherlink.com 1.10,2013-06-03 13:49:00,
2013-06-03 10:04:00,48.1,39.0,30.09,NNW,336,10.0,-999.0,70,-99.99,,,0.00,weatherlink.com 1.10,2013-06-03 14:04:00,
2013-06-03 10:19:00,48.5,38.0,30.09,WNW,297,9.0,-999.0,68,-99.99,,,0.00,weatherlink.com 1.10,2013-06-03 14:19:00,
2013-06-03 10:34:00,48.7,39.0,30.09,WNW,292,12.0,-999.0,69,-99.99,,,0.00,weatherlink.com 1.10,2013-06-03 14:34:00,
2013-06-03 10:49:00,48.5,38.0,30.10,WNW,300,12.0,-999.0,68,-99.99,,,0.00,weatherlink.com 1.10,2013-06-03 14:49:00,
2013-06-03 11:04:00,48.7,38.0,30.10,NNW,333,11.0,-999.0,67,-99.99,,,0.00,weatherlink.com 1.10,2013-06-03 15:04:00,
2013-06-03 11:19:00,49.0,39.0,30.09,NNW,337,6.0,-999.0,68,-99.99,,,0.00,weatherlink.com 1.10,2013-06-03 15:19:00,
2013-06-03 11:34:00,50.0,37.0,30.10,NW,304,20.0,-999.0,62,-99.99,,,0.00,weatherlink.com 1.10,2013-06-03 15:34:00,
2013-06-03 11:49:00,49.5,39.0,30.10,West,273,13.0,-999.0,67,-99.99,,,0.00,weatherlink.com 1.10,2013-06-03 15:49:00,
2013-06-03 12:04:00,49.8,38.0,30.11,West,278,11.0,-999.0,64,-99.99,,,0.00,weatherlink.com 1.10,2013-06-03 16:04:00,
2013-06-03 12:19:00,50.0,38.0,30.11,NW,310,9.0,-999.0,64,-99.99,,,0.00,weatherlink.com 1.10,2013-06-03 16:19:00,
2013-06-03 12:34:00,49.9,38.0,30.10,NW,307,14.0,-999.0,64,-99.99,,,0.00,weatherlink.com 1.10,2013-06-03 16:34:00,
2013-06-03 12:49:00,50.7,38.0,30.10,WNW,302,12.0,-999.0,63,-99.99,,,0.00,weatherlink.com 1.10,2013-06-03 16:49:00,
2013-06-03 13:04:00,50.5,39.0,30.11,WNW,290,19.0,-999.0,64,-99.99,,,0.00,weatherlink.com 1.10,2013-06-03 17:04:00,
2013-06-03 13:19:00,51.4,39.0,30.11,NW,306,11.0,-999.0,64,-99.99,,,0.00,weatherlink.com 1.10,2013-06-03 17:19:00,
2013-06-03 13:34:00,52.1,39.0,30.11,NW,309,9.0,-999.0,62,-99.99,,,0.00,weatherlink.com 1.10,2013-06-03 17:34:00,
2013-06-03 13:49:00,52.1,39.0,30.11,West,279,12.0,-999.0,61,-99.99,,,0.00,weatherlink.com 1.10,2013-06-03 17:49:00,
2013-06-03 14:04:00,52.7,39.0,30.11,West,277,10.0,-999.0,60,-99.99,,,0.00,weatherlink.com 1.10,2013-06-03 18:04:00,
2013-06-03 14:19:00,51.5,38.0,30.11,NW,307,9.0,-999.0,61,-99.99,,,0.00,weatherlink.com 1.10,2013-06-03 18:19:00,
2013-06-03 14:34:00,51.5,39.0,30.11,NW,312,19.0,-999.0,63,-99.99,,,0.00,weatherlink.com 1.10,2013-06-03 18:34:00,
2013-06-03 14:49:00,52.6,40.0,30.11,WNW,296,17.0,-999.0,62,-99.99,,,0.00,weatherlink.com 1.10,2013-06-03 18:49:00,
2013-06-03 15:04:00,51.9,37.0,30.11,WNW,292,14.0,-999.0,58,-99.99,,,0.00,weatherlink.com 1.10,2013-06-03 19:04:00,
2013-06-03 15:19:00,50.8,37.0,30.12,NW,311,14.0,-999.0,59,-99.99,,,0.00,weatherlink.com 1.10,2013-06-03 19:19:00,
2013-06-03 15:34:00,50.6,37.0,30.12,West,273,11.0,-999.0,61,-99.99,,,0.00,weatherlink.com 1.10,2013-06-03 19:34:00,
2013-06-03 15:49:00,49.6,37.0,30.12,NW,322,12.0,-999.0,63,-99.99,,,0.00,weatherlink.com 1.10,2013-06-03 19:49:00,
2013-06-03 16:04:00,48.7,37.0,30.12,NW,311,14.0,-999.0,65,-99.99,,,0.00,weatherlink.com 1.10,2013-06-03 20:04:00,
2013-06-03 16:19:00,49.6,39.0,30.12,West,279,13.0,-999.0,67,-99.99,,,0.00,weatherlink.com 1.10,2013-06-03 20:19:00,
2013-06-03 16:34:00,49.9,38.0,30.12,West,279,9.0,-999.0,65,-99.99,,,0.00,weatherlink.com 1.10,2013-06-03 20:34:00,
2013-06-03 16:49:00,49.9,38.0,30.12,NNW,327,13.0,-999.0,65,-99.99,,,0.00,weatherlink.com 1.10,2013-06-03 20:49:00,
2013-06-03 17:04:00,48.6,38.0,30.13,WNW,303,6.0,-999.0,67,-99.99,,,0.00,weatherlink.com 1.10,2013-06-03 21:04:00,
2013-06-03 17:19:00,48.5,39.0,30.13,NW,304,10.0,-999.0,69,-99.99,,,0.00,weatherlink.com 1.10,2013-06-03 21:19:00,
2013-06-03 17:34:00,49.2,39.0,30.12,NW,323,12.0,-999.0,67,-99.99,,,0.00,weatherlink.com 1.10,2013-06-03 21:34:00,
2013-06-03 17:49:00,50.1,39.0,30.12,NNW,330,6.0,-999.0,66,-99.99,,,0.00,weatherlink.com 1.10,2013-06-03 21:49:00,
2013-06-03 18:05:00,49.1,38.0,30.12,NNW,333,11.0,-999.0,67,-99.99,,,0.00,weatherlink.com 1.10,2013-06-03 22:05:00,
2013-06-03 18:19:00,50.4,39.0,30.12,NNW,336,11.0,-999.0,66,-99.99,,,0.00,weatherlink.com 1.10,2013-06-03 22:19:00,
2013-06-03 18:34:00,49.5,38.0,30.12,WNW,300,11.0,-999.0,65,-99.99,,,0.00,weatherlink.com 1.10,2013-06-03 22:34:00,
2013-06-03 18:50:00,49.1,38.0,30.12,WNW,291,9.0,-999.0,66,-99.99,,,0.00,weatherlink.com 1.10,2013-06-03 22:50:00,
2013-06-03 19:04:00,49.3,37.0,30.13,NW,317,10.0,-999.0,64,-99.99,,,0.00,weatherlink.com 1.10,2013-06-03 23:04:00,
2013-06-03 19:20:00,48.7,35.0,30.13,West,281,5.0,-999.0,60,-99.99,,,0.00,weatherlink.com 1.10,2013-06-03 23:20:00,
2013-06-03 19:35:00,49.2,37.0,30.14,WNW,298,11.0,-999.0,62,-99.99,,,0.00,weatherlink.com 1.10,2013-06-03 23:35:00,
2013-06-03 19:50:00,48.5,35.0,30.14,NW,309,8.0,-999.0,60,-99.99,,,0.00,weatherlink.com 1.10,2013-06-03 23:50:00,
2013-06-03 20:05:00,48.0,35.0,30.14,NW,320,8.0,-999.0,62,-99.99,,,0.00,weatherlink.com 1.10,2013-06-04 00:05:00,
2013-06-03 20:20:00,47.4,36.0,30.14,NNW,340,10.0,-999.0,64,-99.99,,,0.00,weatherlink.com 1.10,2013-06-04 00:20:00,
2013-06-03 20:35:00,46.7,35.0,30.15,NW,321,5.0,-999.0,65,-99.99,,,0.00,weatherlink.com 1.10,2013-06-04 00:35:00,
2013-06-03 20:50:00,45.6,35.0,30.14,NW,313,4.0,-999.0,67,-99.99,,,0.00,weatherlink.com 1.10,2013-06-04 00:50:00,
2013-06-03 21:05:00,45.0,35.0,30.14,NW,310,4.0,-999.0,68,-99.99,,,0.00,weatherlink.com 1.10,2013-06-04 01:05:00,
2013-06-03 21:20:00,44.5,35.0,30.16,NNW,329,0.0,-999.0,69,-99.99,,,0.00,weatherlink.com 1.10,2013-06-04 01:20:00,
2013-06-03 21:35:00,43.7,35.0,30.15,NNW,329,0.0,-999.0,72,-99.99,,,0.00,weatherlink.com 1.10,2013-06-04 01:35:00,
2013-06-03 21:50:00,40.4,34.0,30.16,NNW,329,0.0,-999.0,78,-99.99,,,0.00,weatherlink.com 1.10,2013-06-04 01:50:00,
2013-06-03 22:05:00,38.7,34.0,30.17,NNW,329,1.0,-999.0,84,-99.99,,,0.00,weatherlink.com 1.10,2013-06-04 02:05:00,
2013-06-03 22:20:00,38.8,34.0,30.17,NNW,329,0.0,-999.0,84,-99.99,,,0.00,weatherlink.com 1.10,2013-06-04 02:20:00,
2013-06-03 22:35:00,38.3,35.0,30.18,NNW,329,0.0,-999.0,86,-99.99,,,0.00,weatherlink.com 1.10,2013-06-04 02:35:00,
2013-06-03 22:50:00,38.2,35.0,30.19,NNW,329,0.0,-999.0,87,-99.99,,,0.00,weatherlink.com 1.10,2013-06-04 02:50:00,
2013-06-03 23:05:00,38.5,35.0,30.19,NNW,329,0.0,-999.0,87,-99.99,,,0.00,weatherlink.com 1.10,2013-06-04 03:05:00,
2013-06-03 23:20:00,37.9,34.0,30.19,NNW,329,0.0,-999.0,86,-99.99,,,0.00,weatherlink.com 1.10,2013-06-04 03:20:00,
2013-06-03 23:35:00,37.0,34.0,30.19,NNW,329,0.0,-999.0,87,-99.99,,,0.00,weatherlink.com 1.10,2013-06-04 03:35:00,
2013-06-03 23:50:00,36.2,33.0,30.20,NNW,329,0.0,-999.0,89,-99.99,,,0.00,weatherlink.com 1.10,2013-06-04 03:50:00,